Dewpoint
58 58 58 58 58 59 58 57 55 51 52 53 53 49 49 49 48 48 49 54 54 55 55 55 54 54 54 55 55 55 53 52 50 48 46 45 45 45
58 58 57 55 54 54 54 55 56 55 53 53 52 48 47 47 47 48 50 52 52 52 51 52 52 52 52 52 51 50 49 48 47 46 45 44 43 43
54 53 51 50 50 50 51 51 51 51 51 51 49 46 46 46 47 47 49 48 49 49 49 48 48 48 49 50 50 49 48 48 48 45 43 42 42 41
49 48 47 47 47 47 48 48 49 50 49 47 49 46 45 45 46 46 45 43 44 47 46 46 45 45 45 46 46 45 45 44 42 42 41 41 40 38
46 45 44 44 44 45 45 45 46 47 48 48 48 44 43 43 43 43 42 39 38 43 44 44 43 43 44 44 43 42 40 39 40 38 37 36 36 37
44 43 43 43 42 43 43 44 45 44 45 46 45 44 42 42 41 39 38 36 35 36 40 41 43 43 42 42 40 39 38 37 37 36 34 34 35 35
41 41 41 41 41 43 43 43 42 42 42 42 42 41 40 39 39 39 39 35 33 32 33 33 35 34 35 38 38 36 35 34 33 34 34 34 35 36
40 39 40 39 40 42 41 41 41 41 41 41 40 40 40 40 39 38 36 35 35 31 31 29 27 29 27 30 32 36 36 34 32 32 34 34 35 36
39 38 39 38 37 37 37 36 36 37 37 38 39 39 39 39 38 37 35 35 35 29 27 28 24 24 24 22 27 31 33 33 32 32 34 35 36 35
38 38 37 37 37 37 35 34 33 33 36 35 35 35 36 36 38 37 35 32 28 26 25 28 24 23 24 24 30 31 32 31 32 32 33 35 35 35
36 36 36 36 36 38 35 34 32 32 33 34 34 36 36 36 35 33 33 32 30 27 24 21 24 23 25 25 27 34 32 33 32 32 33 34 35 35
35 35 36 37 37 38 35 32 31 29 30 30 28 28 28 29 30 28 32 32 28 28 25 21 23 25 23 26 27 30 32 31 31 31 33 34 35 33
34 34 34 35 37 37 37 32 30 26 29 27 26 27 26 26 26 26 26 27 27 25 25 25 26 25 25 26 26 28 28 30 31 31 32 32 33 32
34 33 33 34 35 36 37 35 33 30 26 23 21 22 23 24 26 26 26 27 27 26 28 26 25 26 25 25 25 26 26 26 27 29 29 30 31 32
36 35 34 34 34 35 37 35 29 28 27 23 21 22 24 26 26 26 27 26 27 27 26 24 25 24 25 25 24 24 25 25 26 27 26 27 28 27
39 37 36 33 34 33 34 29 26 26 26 25 24 23 25 25 25 25 24 25 25 26 26 25 24 24 23 23 23 23 25 24 25 25 25 25 25 24
36 33 31 31 31 31 31 29 26 25 26 24 23 23 23 24 24 24 24 23 23 23 24 25 25 25 25 24 23 23 24 23 24 25 24 24 24 25
35 33 32 30 30 29 28 28 27 26 25 25 25 24 24 23 23 24 24 24 23 23 22 24 25 25 24 24 25 23 23 23 23 24 24 22 21 23
36 34 32 31 30 29 29 27 26 26 26 25 25 25 25 24 24 24 23 23 23 23 24 24 24 23 20 18 20 26 23 23 23 23 23 22 21 22
36 35 33 33 31 30 30 30 28 27 25 25 25 25 25 24 24 25 24 23 23 23 23 23 22 22 20 18 18 21 26 24 22 22 22 23 23 23
35 34 34 34 32 31 31 31 30 29 28 25 25 25 25 25 24 24 24 24 24 23 22 23 23 23 24 23 20 20 21 26 24 23 23 21 19 19
34 34 34 34 33 32 32 31 30 29 29 29 27 26 25 24 23 23 23 23 23 25 24 24 24 24 23 21 20 20 20 22 25 26 24 21 20 16
33 33 33 33 33 33 32 31 30 30 29 29 28 28 26 25 24 22 22 22 22 22 24 24 23 23 23 22 22 22 21 21 21 21 25 26 25 24
Wind_Speed
4 3 2 2 1 3 4 6 5 4 6 7 6 6 9 9 8 8 7 5 3 7 10 9 10 11 13 15 12 17 17 17 13 12 12 11 11 9
3 2 4 4 3 3 3 3 0 5 6 3 7 3 4 5 6 6 5 6 7 6 7 9 9 9 10 11 11 12 14 12 12 11 13 11 11 11
5 5 5 3 3 3 4 3 2 2 6 3 2 1 3 6 5 5 6 6 5 6 6 7 8 8 8 10 10 10 11 11 11 10 10 11 11 10
7 7 6 3 3 4 3 3 2 2 3 9 3 4 6 5 7 8 6 4 4 6 7 6 7 7 7 8 11 10 11 12 9 10 9 9 9 9
8 7 6 4 4 3 2 1 2 3 4 6 8 4 5 3 3 2 5 4 4 5 7 8 8 8 8 10 11 9 9 10 11 10 7 6 8 8
9 7 5 5 3 2 2 2 2 3 5 6 6 5 5 3 3 6 7 4 5 2 2 2 7 9 9 9 9 9 10 10 9 8 8 7 7 8
7 6 4 3 1 1 1 1 2 2 6 7 8 4 4 6 8 5 10 8 6 4 5 2 2 4 4 6 8 9 8 9 7 8 9 9 9 9
7 3 3 3 3 4 4 5 4 1 4 4 6 7 9 7 5 6 7 6 7 9 9 9 4 6 5 4 4 8 9 8 8 9 10 11 11 10
6 5 4 2 3 2 3 3 5 5 2 3 7 5 5 2 3 8 9 6 4 4 5 7 4 7 5 4 6 9 11 10 10 10 11 12 12 10
5 5 4 3 3 4 2 1 2 2 4 3 3 6 7 7 6 3 7 6 3 2 3 6 4 6 4 5 5 9 12 11 11 11 12 12 12 11
4 3 3 2 4 5 2 3 1 1 1 4 6 7 6 4 2 4 5 8 5 4 7 4 4 3 3 4 5 6 13 12 11 11 11 12 12 12
4 2 2 3 3 4 4 2 4 3 2 0 2 3 6 5 5 1 3 7 3 3 7 8 6 5 3 1 2 1 8 9 9 10 12 13 14 10
3 3 4 4 4 6 7 5 5 3 2 1 0 1 2 4 5 5 4 1 5 4 3 5 5 4 1 2 2 3 3 3 3 1 8 10 12 9
6 6 4 5 5 6 7 8 6 4 2 1 2 3 2 2 2 3 4 3 1 3 7 4 3 5 6 4 4 4 4 4 4 5 4 4 6 10
7 8 7 6 6 6 8 8 5 4 4 3 3 3 2 0 2 1 3 5 6 5 3 2 2 5 4 3 3 5 6 7 7 7 6 8 9 7
8 10 8 6 7 7 7 6 3 3 5 4 3 2 1 3 3 2 2 1 1 1 2 2 3 5 4 4 4 4 7 5 8 7 6 6 7 8
5 4 5 7 9 9 8 7 4 4 6 5 5 5 5 5 5 4 3 3 3 2 3 2 2 1 2 4 6 8 7 6 5 7 6 8 9 11
6 7 9 10 11 9 10 9 8 9 8 8 7 8 8 8 7 5 5 6 6 5 5 3 4 3 2 8 16 9 8 8 7 9 7 7 10 10
9 12 11 11 11 11 10 10 9 10 9 10 10 10 9 9 9 8 9 8 8 8 7 6 7 5 6 5 1 16 11 7 6 9 10 11 6 4
10 13 13 12 12 11 9 10 9 9 9 10 10 10 11 11 10 11 11 11 10 8 8 8 9 12 10 5 2 1 13 9 8 9 7 9 10 14
12 13 13 12 12 11 10 9 9 10 10 11 11 11 11 11 13 12 11 13 12 10 12 13 16 15 7 2 5 5 5 18 13 9 6 7 5 3
9 11 11 11 11 10 9 9 9 9 9 11 12 11 11 12 13 12 13 12 13 14 13 9 6 10 11 13 13 10 5 4 15 19 16 13 6 5
8 9 9 9 9 8 8 9 10 9 9 10 10 11 11 12 12 13 12 13 12 12 12 10 8 9 12 13 15 13 11 9 5 9 15 23 24 24
Wind_Direction
163 184 205 234 181 243 212 212 179 224 238 221 196 206 213 207 211 216 218 201 101 111 115 114 106 94 84 87 97 113 119 125 134 132 134 142 140 139
118 151 113 77 77 90 66 32 286 240 244 222 214 189 193 219 220 214 212 177 154 137 136 129 122 119 113 111 112 120 128 137 141 146 140 143 141 136
118 109 82 54 54 42 44 45 27 340 282 292 307 232 222 212 202 206 186 174 174 159 161 148 143 142 150 142 142 141 143 144 145 155 144 146 139 139
129 126 118 105 86 53 43 22 344 310 269 278 279 244 238 236 223 204 193 195 186 177 176 162 164 154 154 158 140 150 150 142 154 147 138 144 151 150
125 123 117 111 103 82 68 22 347 322 302 279 275 231 231 207 194 215 201 192 204 195 191 182 168 167 170 144 137 145 140 138 141 134 135 151 165 160
114 114 111 105 120 114 57 357 339 319 292 280 278 259 248 230 205 209 217 209 200 185 152 170 169 157 156 157 153 157 147 147 156 151 149 161 165 167
117 118 121 123 117 68 82 351 331 340 308 308 296 256 243 231 224 213 216 191 200 185 167 151 146 149 130 162 165 169 167 164 176 174 171 167 175 171
148 149 143 140 119 104 82 71 69 38 296 288 278 266 266 253 236 224 186 180 229 197 185 197 191 196 183 184 194 198 192 194 193 197 186 176 179 176
162 165 161 144 115 125 67 56 56 52 5 281 283 282 284 270 245 221 207 192 204 178 154 201 192 210 196 204 221 216 211 210 207 203 193 185 181 183
170 170 163 167 177 136 93 338 59 72 34 25 325 305 285 288 237 235 207 160 102 146 183 205 176 204 189 206 220 226 210 203 202 201 194 189 192 191
176 161 147 201 222 163 175 258 347 263 118 55 45 28 44 55 130 141 166 170 206 204 199 186 179 168 191 204 215 290 203 191 194 205 206 200 201 202
161 192 215 210 285 242 238 238 279 268 219 292 15 26 32 43 46 58 199 205 159 217 201 186 167 170 190 190 202 301 195 192 206 217 212 202 203 194
195 227 236 226 236 259 233 230 247 193 192 150 3 322 17 31 35 35 57 230 218 251 188 160 179 174 128 135 186 207 194 166 181 241 196 186 185 185
220 212 228 230 234 247 255 223 231 177 156 200 268 287 311 333 26 41 36 53 27 268 175 166 180 184 170 167 191 192 214 215 209 205 188 158 198 208
229 218 207 223 234 236 236 238 229 189 215 234 266 279 267 277 138 92 78 75 73 64 88 120 159 178 194 191 175 192 169 214 208 204 202 206 209 213
231 217 206 216 223 229 238 237 198 210 222 238 251 252 190 189 203 202 203 146 158 144 77 76 141 165 191 213 199 196 207 204 195 204 210 222 223 226
204 194 203 215 227 229 230 227 217 213 222 224 228 229 227 213 213 198 207 189 225 218 227 197 170 194 240 206 226 224 211 216 198 186 195 232 235 232
203 224 233 231 235 236 236 235 226 228 230 228 231 233 236 224 219 208 214 214 225 226 229 207 200 219 273 245 217 221 217 229 217 209 218 241 264 243
221 227 236 237 241 240 242 236 240 235 236 235 233 234 232 234 223 221 219 220 229 230 230 201 196 197 230 248 203 211 213 203 202 209 213 215 242 245
222 233 236 237 239 240 240 243 249 248 240 240 236 236 228 227 227 231 223 225 229 225 228 212 215 210 212 224 242 202 206 206 201 208 214 225 246 267
234 240 236 234 234 233 237 243 243 247 241 239 238 232 228 221 229 227 230 229 229 224 233 227 225 217 212 168 257 248 227 214 212 205 193 213 227 236
241 244 243 237 234 232 234 238 246 246 241 235 240 233 228 220 230 231 223 225 227 227 234 237 195 191 198 217 235 240 247 223 226 232 230 226 192 226
258 254 252 243 237 234 232 237 242 245 245 247 243 239 229 229 230 230 231 228 229 227 225 225 213 205 215 220 231 240 238 241 240 236 240 234 238 247